{"data":{"norad_id":82189,"intl_designator":"","name":"UNKNOWN","alt_names":[],"object_type":"UNKNOWN","status":"UNKNOWN","operator":null,"country":null,"launch_date":null,"launch_site_code":null,"launch_vehicle":null,"mission":null,"orbit_class":"UNKNOWN","rcs_meters":null,"size_class":null,"mass_kg":null,"dimensions":null,"purposes":[],"wikipedia_slug":null,"has_3d_model":false,"image_url":null,"decayed_at":null,"tle_current":{"epoch":"2026-09-12T06:52:51.052800Z","epoch_age_seconds":724046,"freshness":"AGED","line1":"1 82189U          26255.28670200  .00000161  00000+0  65011-4 0  9997","line2":"2 82189  74.0319 266.6699 0015800  26.9282 333.2687 14.35372850671667","mean_motion":14.3537285,"eccentricity":0.00158,"inclination_deg":74.0319,"raan_deg":266.6699,"arg_perigee_deg":26.9282,"mean_anomaly_deg":333.2687,"bstar":6.5011e-5,"rev_number":67166,"period_min":100.32236571843,"perigee_km":762.52750043937,"apogee_km":785.12770858963,"semimajor_km":7151.9646045145,"source":"CELESTRAK","updated_at":"2026-09-20T09:00:32.431174Z"}}}